| time (UTC) | temp F | wind direction | speed knots | gust knots | rain 1hr in | rain 24hr in | rain mn in | humidity % | barometer mb |
| 20260509030052 | 35 | 0 | 0.0 | 0.0 | 0.00 | 0.00 | 0.00 | 34 | 1012.7 |
| 20260509024550 | 36 | 0 | 0.0 | 0.0 | 0.00 | 0.00 | 0.00 | 45 | 1012.6 |
| 20260509023108 | 36 | 0 | 0.0 | 0.0 | 0.00 | 0.00 | 0.00 | 55 | 1012.6 |
| 20260509021553 | 37 | 0 | 0.0 | 0.9 | 0.00 | 0.00 | 0.00 | 62 | 1012.7 |
| 20260509020056 | 37 | 0 | 0.0 | 0.0 | 0.00 | 0.00 | 0.00 | 68 | 1012.4 |
| 20260509014550 | 38 | 0 | 0.0 | 0.0 | 0.00 | 0.00 | 0.00 | 73 | 1012.2 |
| 20260509013055 | 39 | 0 | 0.0 | 0.0 | 0.00 | 0.00 | 0.00 | 75 | 1012.3 |
| 20260509011557 | 40 | 0 | 0.0 | 0.0 | 0.00 | 0.00 | 0.00 | 74 | 1012.0 |
| 20260509010053 | 41 | 0 | 0.0 | 0.0 | 0.00 | 0.00 | 0.00 | 72 | 1011.8 |
| 20260509004556 | 43 | 0 | 0.0 | 0.0 | 0.00 | 0.00 | 0.00 | 69 | 1011.3 |
| 20260509003051 | 44 | 0 | 0.0 | 0.9 | 0.00 | 0.00 | 0.00 | 66 | 1011.2 |
| 20260509001552 | 45 | 0 | 0.9 | 1.7 | 0.00 | 0.00 | 0.00 | 62 | 1011.1 |
| 20260509000059 | 46 | 325 | 0.9 | 1.7 | 0.00 | 0.00 | 0.00 | 57 | 1011.0 |
| 20260508234554 | 49 | 300 | 0.0 | 1.7 | 0.00 | 0.00 | 0.00 | 51 | 1010.9 |
| 20260508233059 | 51 | 312 | 1.7 | 4.3 | 0.00 | 0.00 | 0.00 | 42 | 1010.8 |
| 20260508231552 | 53 | 267 | 3.5 | 8.7 | 0.00 | 0.00 | 0.00 | 38 | 1010.3 |
| 20260508230050 | 53 | 326 | 1.7 | 12.2 | 0.00 | 0.00 | 0.00 | 37 | 1010.4 |
| 20260508224553 | 53 | 292 | 4.3 | 12.2 | 0.00 | 0.00 | 0.00 | 38 | 1010.4 |
| 20260508223051 | 54 | 300 | 4.3 | 8.7 | 0.00 | 0.00 | 0.00 | 35 | 1010.3 |
| 20260508221551 | 54 | 308 | 3.5 | 11.3 | 0.00 | 0.00 | 0.00 | 38 | 1010.2 |
| 20260508220055 | 54 | 296 | 5.2 | 12.2 | 0.00 | 0.00 | 0.00 | 38 | 1010.4 |
| 20260508214551 | 53 | 312 | 6.1 | 12.2 | 0.00 | 0.00 | 0.00 | 39 | 1010.2 |
| 20260508213052 | 53 | 276 | 5.2 | 13.0 | 0.00 | 0.00 | 0.00 | 41 | 1010.3 |
| 20260508211559 | 53 | 293 | 3.5 | 13.9 | 0.00 | 0.00 | 0.00 | 42 | 1010.2 |
| 20260508210058 | 53 | 301 | 6.1 | 11.3 | 0.00 | 0.00 | 0.00 | 43 | 1010.4 |
| 20260508204556 | 52 | 328 | 3.5 | 14.8 | 0.00 | 0.00 | 0.00 | 47 | 1010.4 |
| 20260508203053 | 52 | 314 | 6.1 | 13.0 | 0.00 | 0.00 | 0.00 | 46 | 1010.4 |
| 20260508201555 | 52 | 236 | 5.2 | 14.8 | 0.00 | 0.00 | 0.00 | 50 | 1010.6 |
| 20260508200109 | 52 | 314 | 3.5 | 13.0 | 0.00 | 0.00 | 0.00 | 51 | 1010.8 |
| 20260508194553 | 51 | 243 | 6.1 | 13.9 | 0.00 | 0.00 | 0.00 | 54 | 1011.0 |
| 20260508193135 | 51 | 143 | 4.3 | 16.5 | 0.00 | 0.00 | 0.00 | 57 | 1010.9 |
| 20260508191550 | 50 | 330 | 7.0 | 17.4 | 0.00 | 0.00 | 0.00 | 57 | 1010.9 |
| 20260508190053 | 50 | 311 | 7.8 | 14.8 | 0.00 | 0.00 | 0.00 | 59 | 1010.9 |
| 20260508184603 | 49 | 33 | 4.3 | 9.6 | 0.00 | 0.00 | 0.00 | 62 | 1010.9 |
| 20260508183123 | 48 | 295 | 7.0 | 13.0 | 0.00 | 0.00 | 0.00 | 64 | 1011.1 |
| 20260508181605 | 47 | 347 | 9.6 | 16.5 | 0.00 | 0.00 | 0.00 | 66 | 1011.3 |
| 20260508180056 | 46 | 8 | 9.6 | 17.4 | 0.00 | 0.00 | 0.00 | 67 | 1011.6 |
| 20260508174558 | 46 | 310 | 5.2 | 14.8 | 0.00 | 0.00 | 0.00 | 68 | 1011.6 |
| 20260508173053 | 46 | 331 | 4.3 | 10.4 | 0.00 | 0.00 | 0.00 | 67 | 1011.4 |
| 20260508171553 | 46 | 318 | 5.2 | 12.2 | 0.00 | 0.00 | 0.00 | 67 | 1011.1 |
| 20260508170056 | 46 | 315 | 4.3 | 9.6 | 0.00 | 0.00 | 0.00 | 67 | 1011.0 |
| 20260508164552 | 46 | 329 | 5.2 | 13.0 | 0.00 | 0.00 | 0.00 | 67 | 1011.1 |
| 20260508163053 | 47 | 338 | 5.2 | 13.0 | 0.00 | 0.00 | 0.00 | 66 | 1011.0 |
| 20260508161549 | 46 | 333 | 6.1 | 13.0 | 0.00 | 0.00 | 0.00 | 66 | 1011.2 |
| 20260508160055 | 46 | 314 | 4.3 | 8.7 | 0.00 | 0.00 | 0.00 | 66 | 1011.3 |
| 20260508154609 | 46 | 326 | 2.6 | 7.8 | 0.00 | 0.00 | 0.00 | 65 | 1011.3 |
| 20260508153053 | 47 | 316 | 2.6 | 4.3 | 0.00 | 0.00 | 0.00 | 59 | 1011.3 |
| 20260508151600 | 48 | 304 | 3.5 | 12.2 | 0.00 | 0.00 | 0.00 | 56 | 1010.6 |
| 20260508150055 | 49 | 300 | 4.3 | 8.7 | 0.00 | 0.00 | 0.00 | 50 | 1010.2 |
| 20260508144606 | 50 | 4 | 4.3 | 10.4 | 0.00 | 0.00 | 0.00 | 46 | 1010.1 |
| 20260508143106 | 51 | 61 | 4.3 | 9.6 | 0.00 | 0.00 | 0.00 | 45 | 1010.2 |
| 20260508141604 | 51 | 243 | 1.7 | 9.6 | 0.00 | 0.00 | 0.00 | 47 | 1010.4 |
| 20260508140051 | 50 | 287 | 3.5 | 8.7 | 0.00 | 0.00 | 0.00 | 50 | 1010.6 |
| 20260508134612 | 49 | 281 | 1.7 | 7.0 | 0.00 | 0.00 | 0.00 | 53 | 1010.6 |
| 20260508133057 | 48 | 342 | 2.6 | 6.1 | 0.00 | 0.00 | 0.00 | 55 | 1010.6 |
| 20260508131552 | 47 | 287 | 1.7 | 7.0 | 0.00 | 0.00 | 0.00 | 57 | 1010.8 |
| 20260508130053 | 47 | 242 | 0.9 | 8.7 | 0.00 | 0.00 | 0.00 | 60 | 1010.9 |
| 20260508124550 | 46 | 311 | 4.3 | 8.7 | 0.00 | 0.00 | 0.00 | 61 | 1011.0 |
| 20260508123056 | 47 | 143 | 0.9 | 5.2 | 0.00 | 0.00 | 0.00 | 63 | 1011.1 |
| 20260508121552 | 46 | 336 | 1.7 | 4.3 | 0.00 | 0.00 | 0.00 | 64 | 1011.2 |
| 20260508120053 | 45 | 248 | 0.0 | 5.2 | 0.00 | 0.00 | 0.00 | 68 | 1011.3 |
| 20260508114551 | 44 | 273 | 0.0 | 5.2 | 0.00 | 0.00 | 0.00 | 68 | 1011.5 |
| 20260508113056 | 43 | 320 | 3.5 | 7.0 | 0.00 | 0.00 | 0.00 | 68 | 1011.3 |
| 20260508111556 | 41 | 326 | 1.7 | 5.2 | 0.00 | 0.00 | 0.00 | 69 | 1011.1 |
| 20260508110106 | 38 | 0 | 0.0 | 0.0 | 0.00 | 0.00 | 0.00 | 25 | 1011.1 |
| 20260508104555 | 37 | 0 | 0.0 | 0.9 | 0.00 | 0.00 | 0.00 | 24 | 1010.9 |
| 20260508103058 | 37 | 111 | 0.0 | 0.9 | 0.00 | 0.00 | 0.00 | 18 | 1010.9 |
| 20260508101552 | 37 | 0 | 0.0 | 0.0 | 0.00 | 0.00 | 0.00 | 29 | 1010.7 |
| 20260508100108 | 36 | 0 | 0.0 | 0.0 | 0.00 | 0.00 | 0.00 | 14 | 1010.7 |
| 20260508094603 | 35 | 0 | 0.0 | 0.0 | 0.00 | 0.00 | 0.00 | 8 | 1010.4 |
| 20260508093052 | 35 | 0 | 0.0 | 0.0 | 0.00 | 0.00 | 0.00 | 13 | 1010.3 |
| 20260508091557 | 35 | 0 | 0.0 | 0.0 | 0.00 | 0.00 | 0.00 | 27 | 1010.3 |
| 20260508090109 | 35 | 0 | 0.0 | 0.0 | 0.00 | 0.00 | 0.00 | 42 | 1010.2 |
| 20260508084551 | 36 | 0 | 0.0 | 0.0 | 0.00 | 0.00 | 0.00 | 52 | 1010.1 |
| 20260508083051 | 37 | 107 | 0.0 | 0.9 | 0.00 | 0.00 | 0.00 | 61 | 1009.9 |
| 20260508081601 | 38 | 0 | 0.0 | 0.0 | 0.00 | 0.00 | 0.00 | 72 | 1010.1 |
| 20260508080052 | 39 | 236 | 0.0 | 0.9 | 0.00 | 0.00 | 0.00 | 74 | 1009.8 |
| 20260508074549 | 39 | 0 | 0.0 | 0.0 | 0.00 | 0.00 | 0.00 | 75 | 1009.6 |
| 20260508073106 | 40 | 0 | 0.0 | 0.0 | 0.00 | 0.00 | 0.00 | 74 | 1009.7 |
| 20260508071548 | 42 | 0 | 0.0 | 0.9 | 0.00 | 0.00 | 0.00 | 74 | 1009.5 |
| 20260508070052 | 42 | 0 | 0.0 | 0.9 | 0.00 | 0.00 | 0.00 | 68 | 1009.5 |
| 20260508064602 | 42 | 287 | 0.0 | 0.9 | 0.00 | 0.00 | 0.00 | 69 | 1009.5 |
| 20260508063057 | 43 | 0 | 0.0 | 0.9 | 0.00 | 0.00 | 0.00 | 68 | 1009.5 |
| 20260508061605 | 43 | 232 | 0.0 | 2.6 | 0.00 | 0.00 | 0.00 | 64 | 1009.5 |
| 20260508054556 | 41 | 266 | 0.9 | 3.5 | 0.00 | 0.00 | 0.00 | 71 | 1009.6 |
| 20260508053059 | 40 | 0 | 0.0 | 0.0 | 0.00 | 0.00 | 0.00 | 73 | 1009.3 |
| 20260508051609 | 41 | 0 | 0.0 | 0.0 | 0.00 | 0.00 | 0.00 | 74 | 1009.0 |
| 20260508050059 | 41 | 0 | 0.0 | 0.0 | 0.00 | 0.00 | 0.00 | 73 | 1009.4 |
| 20260508044553 | 41 | 0 | 0.0 | 0.9 | 0.00 | 0.00 | 0.00 | 73 | 1009.5 |
| 20260508043052 | 41 | 0 | 0.0 | 1.7 | 0.00 | 0.00 | 0.00 | 73 | 1009.5 |
| 20260508041551 | 41 | 0 | 0.9 | 1.7 | 0.00 | 0.00 | 0.00 | 71 | 1009.5 |
| 20260508040057 | 40 | 217 | 0.0 | 0.9 | 0.00 | 0.00 | 0.00 | 70 | 1009.5 |
| 20260508034551 | 39 | 0 | 0.0 | 0.0 | 0.00 | 0.00 | 0.00 | 60 | 1009.5 |
| 20260508033057 | 38 | 0 | 0.0 | 0.0 | 0.00 | 0.00 | 0.00 | 59 | 1009.6 |
| 20260508031557 | 38 | 0 | 0.0 | 0.0 | 0.00 | 0.00 | 0.00 | 62 | 1009.6 |